Regional Weather Roundup
Issued by NWS Cleveland, OH

Home | Current Version | Previous Version | Graphics & Text | Print | Product List | Glossary On
Versions: 1 2 3 4 5 6 7 8 9 10 11 12 13 14 15 16 17 18 19 20 21 22 23 24 25 26 27 28 29 30 31 32 33 34 35 36 37 38 39 40 41 42 43 44 45 46 47 48 49 50
000
ASUS41 KCLE 200700
RWRCLE
OHIO REGIONAL WEATHER ROUNDUP
NATIONAL WEATHER SERVICE WILMINGTON, OH
300 AM EDT MON OCT 20 2014

NOTE: "FAIR" INDICATES FEW OR NO CLOUDS BELOW 12,000 FEET WITH NO
SIGNIFICANT WEATHER AND/OR OBSTRUCTIONS TO VISIBILITY.

OHZ001>008-015>018-024>027-034-035-043-044-200800-
   NORTHWEST OHIO

CITY           SKY/WX    TMP DP  RH WIND       PRES   REMARKS
DEFIANCE       CLOUDY    49  41  74 S8        29.97F
FINDLAY        LGT RAIN  48  40  73 SW8       29.99F
TOLEDO EXPRESS CLOUDY    49  38  65 SW7       29.97F
TOLEDO METCALF MOCLDY    48  38  68 S9        29.98F
LIMA           LGT RAIN  49  41  74 SW8       30.01F
$$

OHZ009>014-019>023-028>033-038-089-200800-
   NORTHEAST OHIO

CITY           SKY/WX    TMP DP  RH WIND       PRES   REMARKS
CLE-HOPKINS    CLOUDY    47  35  63 S7        30.03F
CLE-LAKEFRONT  FAIR      49  36  61 S12       30.00F
CUY CO. ARPT   NOT AVBL
LORAIN-ELYRIA  MOCLDY    46  38  73 SW3       30.01F
ASHTABULA      FAIR      42  36  79 S5        30.02F
AKRON-CANTON   MOCLDY    46  36  68 SW6       30.02F
WOOSTER        NOT AVBL
MANSFIELD      MOCLDY    46  37  71 S9        30.01F
YOUNGSTOWN     CLOUDY    44  36  73 S3        30.02F
$$

OHZ042-051>053-060>062-070>072-077>081-200800-
  SOUTHWEST OHIO

CITY           SKY/WX    TMP DP  RH WIND       PRES   REMARKS
CINC-COVINGTON CLOUDY    46  40  79 SW5       30.04F
CINC-LUNKEN    FAIR      43  42  97 CALM      30.06F
HAMILTON       FAIR      43  42  97 CALM      30.05F
DAYTON         NOT AVBL
WRIGHT-PAT AFB FAIR      46  40  81 CALM      30.04F
DAYTON GENERAL FAIR      46  40  79 S3        30.03F
WILMINGTON     FAIR      44  39  82 S5        30.03F
$$

OHZ036-037-039>041-045>050-054>059-063>069-073>076-082>088-200800-
  CENTRAL AND SOUTHEAST OHIO

CITY           SKY/WX    TMP DP  RH WIND       PRES   REMARKS
COLUMBUS       MOCLDY    44  37  76 CALM      30.03F
OSU AIRPORT    FAIR      45  38  76 S5        30.03F
BOLTON FIELD   NOT AVBL
RICKENBACK AFB NOT AVBL
NEWARK         FAIR      39  37  92 CALM      30.04F
MARION         FAIR      47  37  68 SW8       30.03S
LANCASTER      FAIR      41  38  89 CALM      30.04F
ZANESVILLE     FAIR      39  35  86 CALM      30.05F
NEW PHILLY     FAIR      43  37  79 SE5       30.05F
$$


USA.gov is the U.S. government's official web portal to all federal, state and local government web resources and services.